Temperature
22 22 21 21 21 21 20 20 20 20 19 19 19 19 19 18 18 18 18 18 18 18 18 18 18 18 18 18 18 18 18 18 18 18 18 18 18 18 18 18 18 18 18
22 22 21 21 21 20 20 20 20 20 19 19 19 19 18 18 18 18 18 18 18 18 18 18 18 18 18 18 18 18 18 18 18 18 18 18 18 18 18 18 18 18 18
22 21 21 21 21 20 20 20 20 19 19 19 19 18 18 18 18 18 18 18 18 18 18 18 18 18 18 18 18 18 18 18 18 18 18 18 18 18 18 18 18 18 18
22 21 21 21 21 20 20 20 20 19 19 19 18 18 18 18 18 18 18 18 18 18 18 18 18 18 18 18 18 18 18 18 18 18 18 18 18 18 17 18 18 18 18
22 21 21 21 21 20 20 20 20 19 19 19 18 18 18 18 18 18 18 18 18 18 18 18 18 18 18 18 18 18 18 18 18 18 18 18 18 17 17 17 18 18 17
22 21 21 21 20 20 20 20 19 19 19 19 18 18 18 18 18 17 17 17 18 18 18 18 18 18 18 18 17 17 17 17 18 17 18 18 18 17 17 17 17 17 17
22 21 21 20 20 20 20 20 19 19 19 19 18 18 18 17 17 17 17 17 17 17 18 17 17 17 17 17 17 17 17 17 17 17 17 17 17 17 17 17 17 17 17
22 21 21 21 20 20 20 20 19 19 19 19 18 18 18 17 17 17 17 17 17 17 17 17 17 17 17 17 17 17 17 17 17 17 17 17 17 17 17 17 17 16 16
21 21 21 21 20 20 20 20 20 19 19 19 18 18 18 17 17 17 17 17 17 17 17 17 17 17 17 17 17 17 17 17 17 17 17 17 17 17 17 17 17 16 16
21 21 21 20 20 20 20 19 19 19 19 18 18 18 18 18 17 17 17 17 17 17 17 17 17 17 17 17 17 17 17 17 17 17 17 17 17 17 17 17 16 16 16
21 21 21 20 20 20 19 19 19 19 18 18 18 18 18 17 17 17 17 17 17 17 17 17 17 17 17 17 17 16 16 16 17 17 17 17 17 17 17 16 16 16 16
21 21 20 20 20 19 19 19 19 18 18 18 18 18 18 17 17 17 17 17 17 16 16 16 16 16 16 16 16 16 16 16 16 16 16 16 16 16 16 16 16 16 16
21 21 20 20 19 19 19 18 18 18 18 18 18 18 17 17 17 17 17 17 16 16 16 16 16 16 16 16 16 16 16 16 16 16 16 16 16 16 16 16 16 15 15
20 20 20 19 19 19 18 18 18 18 18 18 17 17 17 17 17 17 17 16 16 16 16 16 16 16 16 16 16 16 16 16 16 16 16 16 16 16 15 15 15 15 15
20 20 19 19 19 19 18 18 18 18 18 17 17 17 17 17 17 16 16 16 16 16 16 16 16 16 16 15 15 15 15 15 15 15 15 15 15 15 15 15 15 15 15
20 20 19 19 19 18 18 18 18 18 17 17 17 17 17 16 16 16 16 16 16 16 16 16 15 15 15 15 15 15 15 15 15 15 15 15 15 15 15 15 14 14 14
20 19 19 19 19 18 18 18 18 17 17 17 17 17 16 16 16 16 16 16 16 15 15 15 15 15 15 15 15 15 15 15 15 15 15 15 15 14 14 14 14 14 14
19 19 19 19 18 18 18 18 17 17 17 16 16 16 16 16 16 16 15 15 15 15 15 15 15 15 15 14 14 14 14 14 14 14 14 14 14 14 14 14 14 14 14
19 19 19 19 18 18 18 17 17 17 16 16 16 16 16 15 15 15 15 15 15 15 15 15 15 14 14 14 14 14 14 14 14 14 14 14 14 14 14 14 14 14 14
19 19 18 18 18 18 17 17 17 16 16 16 16 16 15 15 15 15 15 15 15 15 15 14 14 14 14 14 14 14 14 14 14 14 14 14 13 13 13 13 13 13 13
18 18 18 18 17 17 17 17 16 16 16 16 16 15 15 15 15 15 14 14 14 14 14 14 14 14 14 14 14 13 13 13 13 13 13 13 13 13 13 13 13 13 13
18 18 18 17 17 17 16 16 16 16 16 15 15 15 15 15 15 14 14 14 14 14 14 14 14 14 13 13 13 13 13 13 13 13 13 13 13 13 13 13 13 13 13
17 17 17 17 16 16 16 16 16 15 15 15 15 15 15 14 14 14 14 14 14 13 13 13 13 13 13 13 13 13 13 13 13 13 13 13 13 13 13 13 13 12 12
17 17 17 16 16 16 15 15 15 15 15 15 15 14 14 14 14 14 14 14 13 13 13 13 13 13 13 13 13 13 13 13 13 13 13 13 12 12 12 12 12 12 12
16 16 16 16 16 16 15 15 15 15 15 14 14 14 14 13 13 13 13 13 13 13 13 13 13 13 13 13 12 12 13 12 12 12 12 12 12 12 12 12 12 12 12
16 16 16 16 16 15 15 15 15 14 14 14 14 13 13 13 13 13 13 13 13 13 13 13 13 13 13 12 12 12 12 12 12 12 12 12 12 12 12 12 12 12 11
Wind_Speed
8 9 9 9 9 7 7 7 6 5 4 3 2 2 2 2 1 2 3 3 2 2 2 1 1 1 1 1 1 1 0 1 0 1 2 3 1 1 2 2 3 4 5
7 9 9 9 9 9 8 7 6 5 4 3 3 2 2 2 2 1 2 3 2 2 2 2 1 1 1 1 1 1 1 1 1 2 1 2 3 2 1 1 2 3 3
11 10 9 9 9 8 8 8 6 6 5 4 2 1 1 1 0 1 1 2 3 2 2 2 1 0 1 2 2 2 2 2 1 2 3 2 2 2 2 2 1 1 1
10 10 10 9 9 8 7 7 6 6 5 5 4 4 3 2 3 2 1 1 2 3 3 2 1 1 1 1 2 2 2 2 2 2 2 3 3 2 1 3 2 2 2
11 11 11 10 9 8 7 7 6 5 4 4 5 4 3 3 2 1 1 2 2 2 2 2 2 2 1 1 1 2 2 2 3 2 1 1 1 2 2 2 3 2 2
10 10 9 8 7 7 7 6 6 5 5 5 5 5 4 3 2 2 2 2 2 2 2 2 2 2 2 2 2 2 2 2 2 2 2 2 2 2 2 3 3 2 3
10 9 9 9 9 9 8 7 7 6 5 5 5 5 5 4 4 3 3 2 2 2 3 3 2 2 3 2 2 2 2 2 2 2 2 2 3 3 3 3 2 2 2
9 10 11 11 11 11 9 8 7 6 6 6 5 5 5 4 3 3 3 3 3 3 2 2 2 2 2 2 2 2 2 1 2 2 2 1 2 2 3 3 3 1 2
9 9 8 10 10 10 9 9 8 6 6 6 5 4 4 4 3 3 2 2 3 2 1 1 1 2 2 2 1 1 2 1 1 2 2 2 2 2 2 2 4 4 2
7 7 7 7 7 8 7 6 6 6 5 5 5 5 5 4 3 3 3 2 3 2 1 2 2 1 2 2 1 2 2 1 2 2 2 2 2 2 1 2 2 3 4
7 7 6 6 6 6 6 6 6 5 5 5 5 5 4 4 4 3 3 3 2 2 2 2 2 2 2 2 1 1 1 2 2 2 2 2 2 1 1 1 1 2 3
7 6 6 5 5 4 5 5 5 5 5 5 5 5 4 4 4 3 3 3 2 1 2 2 2 2 2 2 1 2 2 2 2 2 2 3 2 2 1 1 2 2 2
6 5 5 5 4 4 4 4 4 4 4 5 5 5 4 4 4 3 2 2 2 2 1 1 2 2 2 2 2 2 2 2 3 3 3 3 2 2 2 2 2 2 2
6 6 5 4 4 4 4 4 4 4 4 4 5 5 5 5 4 3 2 2 2 2 2 2 2 2 2 2 2 3 3 3 3 3 3 3 3 4 3 3 3 2 1
6 5 5 4 4 4 3 3 3 3 4 4 4 5 4 3 3 3 2 2 2 2 2 2 2 2 2 3 3 3 3 3 3 3 3 3 3 4 3 3 3 3 2
6 5 5 4 4 4 4 3 3 3 3 3 3 3 3 3 3 3 3 2 2 2 2 2 2 2 2 3 2 2 3 2 2 3 3 3 2 3 3 4 4 5 5
5 5 5 4 4 4 4 4 3 3 3 2 2 3 3 3 2 2 2 3 3 2 2 2 2 2 3 3 2 2 1 2 2 3 3 3 3 2 2 3 3 4 5
4 4 4 4 3 3 3 3 3 3 3 2 2 2 3 3 2 1 1 2 2 2 2 2 2 2 3 2 2 2 1 1 2 2 2 2 2 2 1 1 1 2 2
4 3 4 4 3 3 3 3 3 3 3 2 2 2 2 3 2 2 2 2 1 2 2 2 2 3 3 2 2 1 1 1 2 2 2 2 2 3 1 1 1 2 2
3 3 3 4 3 2 3 4 3 3 3 3 3 2 2 3 3 3 2 2 1 2 2 2 3 3 3 3 2 2 1 1 1 2 2 2 2 2 1 1 2 2 2
3 3 4 4 3 2 3 3 2 3 4 3 2 1 2 3 3 2 2 1 1 1 1 2 3 3 3 3 2 3 2 2 1 1 2 2 3 2 1 1 2 3 2
3 4 4 3 1 2 3 3 2 2 2 2 1 1 1 2 2 2 2 1 1 1 2 2 2 2 3 2 2 3 3 3 2 2 2 2 3 2 1 1 1 0 1
3 3 5 3 1 2 3 3 2 2 2 2 1 1 1 1 1 2 2 1 1 1 1 1 2 3 3 2 2 2 3 2 2 2 2 2 2 1 1 1 0 1 1
2 3 3 3 2 1 1 2 2 3 3 2 1 0 0 1 2 1 2 2 2 2 2 2 2 2 2 2 2 2 2 2 1 1 1 1 1 1 1 1 0 1 1
2 3 3 3 3 2 2 2 2 3 3 2 1 1 0 1 1 1 1 2 3 4 4 4 3 3 3 4 3 2 1 2 2 0 1 1 1 1 1 1 1 0 0
2 2 2 2 2 2 2 2 2 3 4 2 2 1 1 1 1 1 2 2 2 3 4 5 5 4 5 4 3 2 2 3 3 3 1 0 1 1 2 2 1 1 1
Wind_Direction
169 158 156 155 152 153 154 158 155 165 155 143 144 150 172 176 172 198 200 189 200 201 191 233 255 232 199 223 214 169 197 287 119 54 346 335 312 256 231 214 208 216 219
164 164 161 160 162 166 168 166 169 172 171 170 169 170 165 172 182 208 208 194 199 217 215 212 231 227 207 264 250 156 158 268 162 139 70 343 342 332 286 245 224 234 222
170 169 168 167 167 171 172 171 173 173 174 166 146 133 87 58 83 257 264 238 211 223 233 226 201 176 188 222 231 197 190 227 258 170 155 170 237 301 322 299 271 257 229
169 167 168 169 172 176 172 165 168 168 169 162 159 162 168 190 217 217 224 244 221 224 226 227 196 199 197 218 237 214 203 196 245 260 208 190 176 175 303 321 308 292 249
173 177 177 176 172 167 166 167 166 169 170 169 170 167 183 198 209 203 219 249 260 240 222 220 221 213 217 220 238 245 225 209 212 221 229 220 194 176 181 270 302 317 292
172 176 175 166 165 166 166 167 170 181 180 175 176 172 177 176 174 203 219 252 262 264 249 222 224 227 219 224 234 238 229 224 218 218 208 194 192 203 187 222 251 271 281
168 168 167 166 169 172 175 175 175 185 186 183 186 184 184 180 189 201 208 220 245 258 259 244 228 234 239 234 221 223 238 234 227 226 228 216 216 197 184 188 229 258 280
169 171 175 175 177 178 179 179 183 190 187 184 191 189 185 186 195 199 204 214 224 235 240 224 225 235 243 246 227 228 239 232 229 241 233 223 227 195 186 184 182 232 298
164 170 173 175 177 178 182 184 186 188 188 187 186 186 187 188 193 197 201 220 233 237 223 202 217 241 247 244 224 239 250 243 228 230 236 239 243 226 213 192 179 180 225
156 158 158 160 171 175 177 177 178 188 192 188 188 189 192 191 192 188 204 218 231 235 214 220 227 247 254 248 232 247 251 242 247 231 231 247 249 239 224 199 199 189 193
161 155 150 156 163 167 171 174 178 181 188 191 192 192 194 197 195 202 215 221 223 221 218 221 224 240 253 244 219 243 237 242 256 256 233 247 241 236 233 196 185 191 180
152 149 148 147 148 153 166 177 180 182 192 189 185 190 189 188 198 212 225 220 216 213 216 218 233 242 252 250 220 245 258 244 252 256 255 261 249 242 235 190 194 209 199
127 136 141 150 161 164 166 174 179 182 187 180 177 183 187 186 195 205 214 209 203 217 222 209 225 245 257 250 244 240 247 249 254 249 246 258 241 241 229 199 199 214 216
133 137 146 163 173 173 172 176 184 187 181 176 175 185 195 196 196 196 196 193 194 196 210 216 225 225 232 239 250 256 256 257 260 255 248 250 233 224 217 217 205 188 182
132 140 156 174 179 171 172 178 187 192 183 177 181 194 200 194 186 188 194 202 208 213 211 218 243 242 234 246 250 253 261 257 267 273 261 256 249 227 219 221 198 178 184
157 153 163 168 171 171 176 177 185 187 167 165 179 178 174 181 185 197 200 203 216 225 226 229 235 253 265 273 254 244 254 257 263 273 277 277 274 252 236 223 210 188 193
166 162 167 172 175 178 173 176 183 171 154 155 170 166 163 167 178 199 203 213 219 227 255 253 241 258 272 288 281 271 234 240 252 259 266 282 284 268 249 239 237 233 227
162 162 154 158 168 162 156 161 155 156 159 160 159 167 169 172 175 166 213 229 225 230 242 253 242 251 272 275 282 281 246 245 254 256 253 259 279 276 230 203 238 254 248
164 158 153 147 141 148 150 131 140 143 149 164 180 184 181 183 188 201 228 229 236 252 250 249 240 242 265 262 256 236 215 249 278 279 275 262 256 269 232 170 238 293 292
143 135 125 106 108 135 131 123 142 150 174 195 204 201 188 187 195 206 220 230 223 255 268 268 255 246 259 266 239 193 188 226 281 308 309 299 279 274 238 183 190 236 280
130 123 118 123 136 124 116 124 145 184 199 195 188 200 216 204 197 203 214 215 215 264 285 274 270 262 264 269 225 187 184 207 240 273 293 304 312 300 260 206 202 222 243
110 113 110 109 129 135 128 138 189 211 178 157 162 220 257 232 203 193 224 220 196 234 294 298 293 288 284 266 234 189 191 193 200 242 270 293 302 311 307 265 242 199 84
131 133 133 134 144 141 145 165 203 174 146 134 166 246 305 305 237 204 218 233 221 215 255 275 282 294 296 291 260 214 215 201 200 235 254 290 298 303 306 289 284 98 101
145 143 142 146 159 170 163 190 193 162 145 154 196 218 301 338 327 264 220 213 217 215 229 243 253 268 284 293 292 270 244 241 246 281 298 322 19 47 320 319 357 139 163
165 159 160 173 186 195 211 219 191 165 163 174 187 218 247 282 309 295 257 232 226 208 204 219 222 223 252 260 240 204 210 221 231 187 55 47 26 5 331 319 294 230 184
160 158 164 173 187 195 221 236 200 170 166 180 199 202 207 246 267 280 327 323 270 252 233 222 215 231 233 239 221 205 204 184 150 124 118 198 243 253 256 250 251 230 223
Height
1518 1519 1520 1522 1523 1524 1525 1526 1527 1528 1529 1529 1530 1530 1531 1532 1532 1533 1533 1533 1533 1533 1533 1533 1533 1533 1533 1534 1534 1534 1534 1534 1534 1534 1534 1533 1533 1533 1533 1533 1532 1532 1532
1517 1518 1519 1520 1521 1522 1523 1524 1525 1527 1528 1529 1529 1530 1530 1531 1531 1531 1531 1532 1532 1532 1532 1532 1532 1532 1532 1532 1532 1532 1532 1532 1533 1533 1532 1532 1532 1531 1531 1531 1531 1531 1530
1515 1516 1518 1519 1520 1521 1522 1523 1524 1525 1526 1528 1528 1529 1529 1529 1530 1530 1530 1530 1530 1530 1530 1530 1530 1530 1530 1530 1530 1531 1531 1530 1531 1532 1532 1531 1530 1530 1530 1529 1529 1529 1528
1513 1514 1515 1517 1518 1519 1521 1522 1523 1524 1525 1526 1527 1527 1527 1527 1527 1528 1528 1529 1529 1529 1529 1528 1528 1528 1528 1528 1528 1529 1529 1529 1528 1529 1530 1530 1529 1529 1528 1528 1528 1527 1527
1510 1512 1513 1514 1516 1518 1519 1520 1521 1522 1523 1524 1525 1525 1525 1526 1526 1527 1527 1527 1527 1527 1527 1527 1526 1526 1526 1526 1526 1526 1527 1527 1527 1527 1527 1527 1527 1527 1526 1525 1525 1525 1525
1508 1510 1512 1513 1514 1516 1517 1518 1519 1520 1521 1522 1522 1523 1523 1524 1525 1525 1525 1525 1525 1525 1524 1524 1524 1524 1524 1524 1524 1524 1524 1524 1524 1524 1525 1525 1525 1524 1524 1524 1523 1523 1523
1506 1508 1509 1511 1512 1513 1515 1515 1516 1517 1519 1519 1520 1520 1521 1522 1522 1523 1523 1523 1523 1522 1522 1522 1522 1522 1522 1522 1522 1521 1521 1521 1521 1521 1522 1522 1522 1522 1522 1522 1521 1521 1521
1504 1505 1506 1508 1509 1511 1512 1513 1514 1515 1516 1517 1517 1518 1519 1520 1520 1520 1520 1521 1521 1520 1520 1520 1519 1519 1519 1519 1519 1519 1519 1518 1518 1519 1519 1518 1519 1519 1519 1519 1519 1518 1518
1503 1504 1505 1506 1508 1509 1510 1511 1512 1513 1513 1514 1515 1516 1517 1517 1517 1518 1518 1518 1518 1518 1517 1517 1517 1517 1516 1516 1516 1516 1515 1516 1515 1515 1515 1515 1516 1516 1516 1516 1516 1517 1515
1502 1503 1504 1505 1506 1507 1508 1510 1510 1511 1511 1512 1513 1514 1514 1515 1515 1515 1515 1515 1515 1515 1515 1514 1514 1514 1514 1513 1513 1513 1513 1513 1513 1513 1512 1512 1512 1512 1512 1513 1513 1513 1513
1500 1501 1503 1504 1505 1506 1507 1507 1508 1509 1509 1510 1510 1511 1512 1512 1512 1513 1513 1513 1512 1512 1512 1511 1511 1511 1511 1510 1510 1510 1510 1510 1509 1509 1509 1509 1509 1509 1509 1509 1509 1509 1510
1500 1501 1502 1503 1503 1504 1505 1506 1506 1507 1507 1507 1508 1508 1509 1509 1510 1510 1510 1510 1510 1509 1509 1509 1508 1508 1507 1507 1506 1506 1506 1506 1506 1506 1506 1505 1505 1505 1505 1505 1505 1506 1506
1499 1500 1501 1502 1502 1502 1503 1504 1504 1505 1505 1505 1506 1506 1506 1506 1506 1507 1507 1507 1507 1506 1506 1506 1505 1505 1504 1504 1503 1503 1503 1502 1502 1502 1502 1501 1501 1501 1501 1501 1502 1502 1502
1498 1499 1500 1500 1501 1501 1502 1502 1502 1503 1503 1503 1503 1503 1503 1503 1504 1504 1504 1504 1504 1504 1503 1503 1502 1501 1500 1500 1500 1500 1499 1498 1498 1498 1498 1498 1498 1497 1497 1498 1498 1498 1499
1498 1498 1499 1499 1499 1500 1500 1500 1501 1500 1500 1500 1500 1501 1501 1501 1501 1501 1501 1502 1501 1501 1500 1500 1499 1498 1498 1497 1496 1496 1495 1495 1495 1495 1495 1494 1494 1494 1494 1494 1494 1494 1495
1496 1496 1497 1497 1497 1497 1498 1498 1498 1498 1498 1498 1498 1498 1499 1499 1499 1499 1499 1499 1498 1498 1497 1496 1496 1495 1494 1493 1493 1493 1492 1492 1492 1491 1491 1491 1491 1490 1490 1491 1491 1491 1492
1494 1494 1495 1495 1495 1496 1496 1496 1496 1496 1496 1496 1496 1496 1496 1496 1496 1496 1496 1496 1495 1495 1494 1493 1493 1492 1491 1491 1490 1490 1490 1489 1488 1488 1488 1488 1487 1487 1487 1487 1488 1488 1489
1493 1493 1492 1493 1494 1494 1495 1494 1495 1494 1494 1494 1494 1494 1494 1493 1494 1493 1493 1493 1492 1492 1491 1490 1490 1489 1489 1488 1487 1487 1486 1486 1486 1485 1485 1485 1484 1484 1484 1484 1484 1485 1486
1491 1491 1491 1491 1492 1492 1492 1492 1492 1492 1492 1492 1492 1491 1491 1491 1491 1491 1490 1490 1489 1489 1488 1488 1487 1486 1486 1485 1485 1484 1484 1483 1483 1483 1483 1482 1482 1482 1482 1482 1482 1482 1483
1489 1489 1490 1490 1490 1490 1491 1491 1490 1490 1490 1490 1490 1490 1489 1489 1489 1488 1488 1487 1487 1486 1485 1485 1484 1484 1483 1483 1482 1482 1481 1481 1481 1481 1481 1481 1480 1480 1480 1480 1480 1479 1480
1488 1489 1488 1488 1488 1489 1489 1489 1489 1488 1488 1489 1489 1488 1488 1487 1487 1486 1485 1485 1484 1483 1482 1482 1481 1481 1480 1480 1480 1479 1479 1479 1479 1479 1478 1478 1478 1478 1478 1478 1478 1478 1478
1486 1487 1486 1487 1488 1488 1487 1487 1487 1487 1487 1487 1487 1487 1486 1485 1484 1483 1483 1482 1481 1480 1479 1479 1478 1478 1478 1478 1477 1477 1477 1477 1477 1477 1477 1477 1477 1476 1476 1476 1476 1476 1476
1485 1485 1486 1486 1486 1486 1486 1485 1485 1485 1485 1485 1485 1484 1484 1483 1482 1481 1480 1479 1478 1477 1477 1477 1476 1476 1476 1476 1476 1475 1475 1475 1475 1475 1476 1475 1475 1475 1475 1475 1475 1475 1474
1484 1484 1484 1484 1484 1484 1484 1484 1484 1484 1483 1483 1483 1482 1482 1480 1479 1478 1477 1476 1475 1475 1475 1474 1474 1474 1474 1474 1474 1473 1473 1473 1473 1474 1474 1474 1474 1473 1473 1473 1473 1473 1473
1483 1483 1483 1482 1482 1481 1481 1482 1482 1482 1481 1481 1480 1480 1479 1478 1476 1475 1474 1474 1474 1474 1473 1473 1473 1472 1472 1472 1472 1471 1471 1471 1471 1472 1472 1472 1472 1471 1471 1471 1471 1471 1471
1481 1481 1481 1481 1480 1480 1479 1480 1479 1479 1479 1479 1478 1477 1476 1475 1474 1473 1472 1471 1471 1471 1471 1471 1471 1470 1470 1470 1470 1469 1469 1469 1469 1469 1469 1469 1469 1469 1469 1469 1469 1469 1468